Regional Weather Roundup
Issued by NWS

Home | Current Version | Previous Version | Text Only | Print | Product List | Glossary Off
Versions: 1 2 3 4 5 6 7 8 9 10 11 12 13 14 15 16 17 18 19 20 21 22 23 24 25 26 27 28 29 30 31 32 33 34 35 36 37 38 39 40 41 42 43 44 45 46 47 48 49 50

000
ASUS43 KMKX 232321
RWRWI

WISCONSIN REGIONAL WEATHER ROUNDUP
NATIONAL WEATHER SERVICE MILWAUKEE/SULLIVAN WI
600 PM CDT SUN JUL 23 2017

NOTE: "FAIR" INDICATES FEW OR NO CLOUDS BELOW 12,000 FEET WITH NO
SIGNIFICANT WEATHER AND/OR OBSTRUCTIONS TO VISIBILITY.

WIZ001-002-006>008-014>016-023>028-240000-
NORTHWEST WISCONSIN

CITY           SKY/WX    TMP DP  RH WIND       PRES   REMARKS
SUPERIOR ARPT  NOT AVBL
ASHLAND        PTSUNNY   63  57  81 NE9       30.01S
HAYWARD        CLOUDY    63  57  81 NE12      30.00S
SIREN          CLOUDY    67  58  72 NE7       30.00S
CUMBERLAND     CLOUDY    63  55  77 N10G16    29.99S
RICE LAKE      CLOUDY    65  58  77 N8        30.00R
CHETEK         CLOUDY    65  59  80 N9G16     29.97S
LADYSMITH      CLOUDY    64  58  79 N15       29.99S
EAU CLAIRE     CLOUDY    68  58  70 N10G18    29.94R
MENOMONIE      CLOUDY    70  58  67 N13       29.96R
NEW RICHMOND   CLOUDY    70  56  63 N10G16    29.97F
OSCEOLA        PTSUNNY   72  58  61 N9        29.99F
$$

WIZ003>005-009-010-017-018-240000-
NORTH CENTRAL WISCONSIN

CITY           SKY/WX    TMP DP  RH WIND       PRES   REMARKS
MANITOWISH WTR CLOUDY    62  61  97 NE6       29.98R
ARBOR VITAE    CLOUDY    62  59  89 N8        29.98R
WOODRUFF       CLOUDY    62  59  89 N8        29.98R
RHINELANDER    CLOUDY    65  58  78 N12G20    29.96R
EAGLE RIVER    CLOUDY    61  53  76 N9        29.97R
LAND O LAKES   CLOUDY    61  55  81 N10G17    30.00R
PHILLIPS       CLOUDY    63  59  86 N9G16     29.97S
TOMAHAWK         N/A     65  56  75 N7        29.96R
MEDFORD        CLOUDY    64  57  76 N16G22    29.94R
MERRILL        NOT AVBL
$$

WIZ029-030-035-036-043>047-240000-
CENTRAL WISCONSIN

CITY           SKY/WX    TMP DP  RH WIND       PRES   REMARKS
WAUSAU         PTSUNNY   72  59  63 N10G23    29.89R
MOSINEE        MOSUNNY   73  61  64 NW18      29.89R
MARSHFIELD     PTSUNNY   73  57  57 N13       29.89R
STEVENS POINT  FAIR      74  56  53 NW14G20   29.87R
WAUPACA        PTSUNNY   80  60  49 N12G17    29.84R HX  81
WAUTOMA        FAIR      80  61  52 NW13      29.83S HX  81
WISC RAPIDS    FAIR      79  60  52 N14       29.87R HX  80
CAMP DOUGLAS   FAIR      74  62  64 NW10      29.87R
$$

WIZ011>013-019>022-031-037>040-048>050-240000-
NORTHEAST WISCONSIN

CITY           SKY/WX    TMP DP  RH WIND       PRES   REMARKS
ANTIGO         PTSUNNY   68  58  68 N14G22    29.92R
SHAWANO        FAIR      76  60  56 N15G24    29.86R
OCONTO         FAIR      71  58  62 N14G20    29.85R
STURGEON BAY     N/A     68  60  75 N15G25    29.85R
GREEN BAY      PTSUNNY   74  68  81 NE16      29.83R
MANITOWOC      CLOUDY    70  64  81 E9        29.84R
APPLETON       PTSUNNY   77  59  53 N9        29.81R
CLINTONVILLE   CLOUDY    79  59  50 N16       29.84R HX  80
OSHKOSH        CLOUDY    75  64  68 NE12      29.82R
$$

WIZ032>034-041-042-053>061-240000-
SOUTHWEST WISCONSIN

CITY           SKY/WX    TMP DP  RH WIND       PRES   REMARKS
LA CROSSE      FAIR      78  60  53 NW20      29.88R
SPARTA         FAIR      74  60  62 N15       29.89R
VIROQUA        FAIR      75  63  66 NW8       29.89S
BOSCOBEL       FAIR      81  62  52 N7        29.86R HX  82
PRAIRIE DU CHI FAIR      78  57  49 W12G17    29.86S
PLATTEVILLE    FAIR      79  63  57 NW15      29.86S HX  80
$$

WIZ056-057-062-063-064-067-068-240000-
SOUTH CENTRAL WISCONSIN

CITY           SKY/WX    TMP DP  RH WIND       PRES   REMARKS
REEDSBURG      FAIR      77  61  56 NW10      29.85R
BARABOO/DELLS  FAIR      80  57  45 NW9G16    29.85R HX  80
LONE ROCK      FAIR      79  60  52 NW13      29.84R HX  80
MINERAL POINT  FAIR      79  59  50 NW13      29.87R HX  80
MADISON        FAIR      80  62  54 N12       29.83R HX  81
MIDDLETON      FAIR      80  60  50 NW10G16   29.85R HX  81
WATERTOWN      PTSUNNY   78  63  60 NW7       29.82R HX  80
MONROE         FAIR      79  63  57 N9        29.84R HX  80
JANESVILLE     PTSUNNY   81  66  61 NE6       29.81R HX  83
$$

WIZ051-052-058>065-066-070>072-240000-
SOUTHEAST WISCONSIN

CITY           SKY/WX    TMP DP  RH WIND       PRES   REMARKS
MILWAUKEE      FAIR      80  65  59 CALM      29.79S HX  82
WAUKESHA       MOSUNNY   81  59  47 NW9       29.82S HX  81
MILWAUKEE/TIMM MOSUNNY   81  57  44 NW8       29.80R HX  81
RACINE         PTSUNNY   78  66  66 CALM      29.82R HX  80
KENOSHA        PTSUNNY   76  68  76 W6        29.81S
FOND DU LAC    FAIR      77  61  57 NE9       29.82R
SHEBOYGAN      FAIR      76  65  68 N6        29.81R
WEST BEND      FAIR      75  63  64 E7        29.82R
JUNEAU         FAIR      79  61  53 NW6       29.83R HX  80
$$

LSZ147-162-240000-
LAKE SUPERIOR

STATION/POSITION TIME  TEMP    WIND        PRES    WAVE
                       AIR SEA DIR/SP/G            HT/PER
                 (UTC) (F)     (DEG/KT/KT) (MB)    (FT/S)
W MID LAKE BUOY  2250   51 48   30/  4/  4 1016.1S   2/ 4
DEVILS ISLAND    2300   57      30/  5/  6 1016.5F
SAXON HARBOR     2240   60      50/  4/  6 1015.6R
$$

LMZ867-665-643>646-240000-
LAKE MICHIGAN

STATION/POSITION TIME  TEMP    WIND        PRES    WAVE
                       AIR SEA DIR/SP/G            HT/PER
                 (UTC) (F)     (DEG/KT/KT) (MB)    (FT/S)
CHAMBERS ISLAND  2230   67     330/ 22/ 25 1010.5R
S GREEN BAY BUOY 2300   72 73  350/ 19/ 23 1010.6
N MID LAKE BUOY  2150   66 67   50/ 14/ 16 1010.0R   2/ 3
NORTHPORT PIER   2240   65     350/ 19/ 26 1010.8R
KEWAUNEE LAKESHO 2254   71      10/  6/ 15 1009.5R
SHEBOYGAN LAKESH 2300   70      40/  7/  7 1009.4R
PORT WASHINGTON  2240   74      40/  4/  8 1010.2R
ATWATER BUOY     2209   73 70  110/  4/  4 1009.1R
MILWAUKEE LAKESH 2300   74     110/  3/  4   N/A
S MID LAKE BUOY  2250   72 71   20/  6/  8 1008.5S   0
KENOSHA   LAKESH 2300   77      60/  2/  2 1009.1
$$

TC  - TEMPERATURE IN CELSIUS
VSB - VISIBILITY IN STATUTE MILES
WCI - WIND CHILL INDEX
HX  - HEAT INDEX




USA.gov is the U.S. government's official web portal to all federal, state and local government web resources and services.